PIA760 OEJN-OPLA

Flight info

Callsign PIA760
Flight time 4h 29m
Altitude 37000
Route EGREP B417 PATOR T532 KODIS Y214 KUPMI DCT KITUB DCT ALRIK L692 KOBES DCT SUTLI DCT EMUGU DCT TULBU G652 KUSRA DCT SODEB G216 KC J112 MIMAL
Aircraft B77L/H-SDE1E2E3FGHIJ2J3J4J5M1RWXY/LB1D1

Departure

Time 2026-04-22 07:49
Airport King Abdulaziz International Airport (OEJN)

Arrival

Time 2026-04-22 12:18
Airport Allama Iqbal International Airport (OPLA)
Time Latitude Longitude Altitude Speed Heading
2026-04-22 06:52 21.67204 39.17059 45 ft 0 kts 139°
2026-04-22 07:38 21.67219 39.17045 47 ft 4 kts 140°
2026-04-22 07:39 21.67240 39.17026 45 ft 4 kts 140°
2026-04-22 07:39 21.67257 39.17011 46 ft 4 kts 131°
2026-04-22 07:39 21.67266 39.16995 43 ft 4 kts 81°
2026-04-22 07:39 21.67257 39.16970 44 ft 4 kts 58°
2026-04-22 07:40 21.67245 39.16950 43 ft 1 kts 56°
2026-04-22 07:42 21.67249 39.16957 43 ft 2 kts 56°
2026-04-22 07:42 21.67264 39.16980 43 ft 5 kts 56°
2026-04-22 07:42 21.67294 39.17020 48 ft 9 kts 45°
2026-04-22 07:43 21.67342 39.17074 48 ft 11 kts 47°
2026-04-22 07:43 21.67405 39.17139 51 ft 14 kts 43°
2026-04-22 07:43 21.67492 39.17196 52 ft 16 kts
2026-04-22 07:43 21.67608 39.17154 51 ft 19 kts 339°
2026-04-22 07:44 21.67731 39.17109 49 ft 15 kts 341°
2026-04-22 07:44 21.67828 39.17121 51 ft 15 kts 51°
2026-04-22 07:44 21.67868 39.17237 50 ft 18 kts 70°
2026-04-22 07:44 21.67865 39.17339 51 ft 14 kts 134°
2026-04-22 07:45 21.67776 39.17375 52 ft 16 kts 162°
2026-04-22 07:45 21.67659 39.17416 50 ft 20 kts 161°
2026-04-22 07:45 21.67521 39.17475 55 ft 23 kts 158°
2026-04-22 07:45 21.67367 39.17535 54 ft 24 kts 160°
2026-04-22 07:46 21.67213 39.17596 54 ft 24 kts 159°
2026-04-22 07:46 21.67058 39.17654 52 ft 24 kts 161°
2026-04-22 07:46 21.66903 39.17712 53 ft 24 kts 160°
2026-04-22 07:46 21.66788 39.17756 52 ft 21 kts 159°
2026-04-22 07:47 21.66655 39.17810 54 ft 17 kts 158°
2026-04-22 07:47 21.66611 39.17869 56 ft 9 kts 85°
2026-04-22 07:47 21.66630 39.17936 55 ft 9 kts 72°
2026-04-22 07:47 21.66654 39.18001 56 ft 9 kts 64°
2026-04-22 07:48 21.66710 39.18025 59 ft 10 kts 351°
2026-04-22 07:48 21.66772 39.18001 55 ft 10 kts 339°
2026-04-22 07:48 21.66979 39.17919 54 ft 75 kts 340°
2026-04-22 07:48 21.67814 39.17589 61 ft 177 kts 339°
2026-04-22 07:49 21.69099 39.17063 703 ft 208 kts 339°
2026-04-22 07:49 21.70521 39.16483 1691 ft 224 kts 339°
2026-04-22 07:49 21.72012 39.15902 2755 ft 226 kts 345°
2026-04-22 07:49 21.73570 39.15581 3562 ft 233 kts 352°
2026-04-22 07:50 21.75248 39.15776 3885 ft 260 kts 26°
2026-04-22 07:50 21.76675 39.16974 4609 ft 263 kts 44°
2026-04-22 07:50 21.78109 39.18230 5320 ft 272 kts 40°
2026-04-22 07:50 21.79601 39.19463 5737 ft 278 kts 41°
2026-04-22 07:51 21.81097 39.20840 6461 ft 286 kts 44°
2026-04-22 07:51 21.82608 39.22299 7171 ft 298 kts 44°
2026-04-22 07:51 21.84174 39.23817 7882 ft 309 kts 44°
2026-04-22 07:51 21.85832 39.25420 8449 ft 328 kts 43°
2026-04-22 07:52 21.87571 39.27091 9134 ft 341 kts 43°
2026-04-22 07:52 21.89369 39.28815 9901 ft 350 kts 43°
2026-04-22 07:52 21.91188 39.30553 10630 ft 360 kts 42°
2026-04-22 07:52 21.93132 39.32406 10891 ft 386 kts 41°
2026-04-22 07:53 21.95208 39.34385 11210 ft 409 kts 41°
2026-04-22 07:53 21.97367 39.36444 11868 ft 419 kts 41°
2026-04-22 07:53 21.99574 39.38547 12644 ft 426 kts 40°
2026-04-22 07:53 22.01809 39.40676 13500 ft 430 kts 40°
2026-04-22 07:54 22.04060 39.42822 14288 ft 434 kts 40°
2026-04-22 07:54 22.06331 39.44989 15102 ft 436 kts 39°
2026-04-22 07:54 22.08614 39.47169 15900 ft 439 kts 39°
2026-04-22 07:54 22.10875 39.49328 16648 ft 442 kts 39°
2026-04-22 07:55 22.13191 39.51540 17403 ft 446 kts 39°
2026-04-22 07:55 22.15530 39.53778 18163 ft 449 kts 39°
2026-04-22 07:55 22.17877 39.56023 18770 ft 453 kts 39°
2026-04-22 07:55 22.20255 39.58299 19376 ft 457 kts 39°
2026-04-22 07:56 22.22652 39.60594 19996 ft 461 kts 39°
2026-04-22 07:56 22.25036 39.62879 20595 ft 465 kts 38°
2026-04-22 07:56 22.27467 39.65209 21189 ft 469 kts 38°
2026-04-22 07:56 22.29923 39.67564 21776 ft 473 kts 38°
2026-04-22 07:57 22.32398 39.69939 22362 ft 477 kts 38°
2026-04-22 07:57 22.34894 39.72334 22966 ft 480 kts 38°
2026-04-22 07:57 22.37375 39.74719 23463 ft 485 kts 38°
2026-04-22 07:57 22.39909 39.77155 23929 ft 489 kts 38°
2026-04-22 07:58 22.42469 39.79617 24407 ft 492 kts 37°
2026-04-22 07:58 22.45036 39.82087 24869 ft 496 kts 37°
2026-04-22 07:58 22.47629 39.84581 25320 ft 500 kts 37°
2026-04-22 07:58 22.50239 39.87077 25643 ft 505 kts 36°
2026-04-22 07:59 22.52888 39.89598 26204 ft 505 kts 36°
2026-04-22 07:59 22.55537 39.92115 26728 ft 507 kts 36°
2026-04-22 07:59 22.58212 39.94659 27139 ft 512 kts 36°
2026-04-22 07:59 22.60865 39.97189 27537 ft 517 kts 36°
2026-04-22 08:00 22.63573 39.99776 27981 ft 520 kts 36°
2026-04-22 08:00 22.66297 40.02382 28417 ft 524 kts 35°
2026-04-22 08:00 22.69041 40.05008 28822 ft 527 kts 35°
2026-04-22 08:00 22.71793 40.07643 29229 ft 530 kts 35°
2026-04-22 08:01 22.74575 40.10309 29599 ft 533 kts 35°
2026-04-22 08:01 22.77330 40.12949 29944 ft 536 kts 35°
2026-04-22 08:01 22.80135 40.15639 30297 ft 538 kts 34°
2026-04-22 08:01 22.82963 40.18355 30689 ft 538 kts 34°
2026-04-22 08:02 22.85733 40.21017 31098 ft 538 kts 34°
2026-04-22 08:02 22.88543 40.23718 31498 ft 538 kts 34°
2026-04-22 08:02 22.91349 40.26417 31883 ft 539 kts 34°
2026-04-22 08:02 22.94163 40.29122 32266 ft 539 kts 34°
2026-04-22 08:03 22.96937 40.31792 32626 ft 540 kts 34°
2026-04-22 08:03 22.99468 40.34229 32967 ft 540 kts 34°
2026-04-22 08:03 23.02280 40.36938 33362 ft 539 kts 33°
2026-04-22 08:03 23.05099 40.39655 33725 ft 540 kts 33°
2026-04-22 08:04 23.07903 40.42360 34073 ft 540 kts 33°
2026-04-22 08:04 23.10716 40.45074 34378 ft 540 kts 33°
2026-04-22 08:04 23.13485 40.47749 34648 ft 541 kts 33°
2026-04-22 08:04 23.16303 40.50472 34928 ft 541 kts 33°
2026-04-22 08:05 23.19127 40.53200 35140 ft 542 kts 33°
2026-04-22 08:05 23.21948 40.55930 35412 ft 543 kts 33°
2026-04-22 08:05 23.24686 40.58797 35696 ft 551 kts 40°
2026-04-22 08:05 23.27077 40.62058 35972 ft 560 kts 49°
2026-04-22 08:06 23.29151 40.65671 36255 ft 567 kts 56°
2026-04-22 08:06 23.30818 40.69582 36504 ft 574 kts 64°
2026-04-22 08:06 23.32232 40.73666 36767 ft 575 kts 66°
2026-04-22 08:06 23.33590 40.77779 36924 ft 579 kts 66°
2026-04-22 08:07 23.36304 40.86000 36992 ft 580 kts 66°
2026-04-22 08:07 23.39101 40.94207 36987 ft 574 kts 65°
2026-04-22 08:08 23.41918 41.02322 36983 ft 571 kts 65°
2026-04-22 08:08 23.44730 41.10425 36990 ft 570 kts 65°
2026-04-22 08:09 23.47511 41.18483 36983 ft 571 kts 65°
2026-04-22 08:09 23.50301 41.26601 36991 ft 572 kts 65°
2026-04-22 08:10 23.53072 41.34677 36984 ft 573 kts 65°
2026-04-22 08:10 23.55868 41.42840 36988 ft 574 kts 65°
2026-04-22 08:11 23.58655 41.50994 36985 ft 574 kts 65°
2026-04-22 08:11 23.61448 41.59178 36977 ft 575 kts 65°
2026-04-22 08:12 23.64219 41.67318 36983 ft 575 kts 65°
2026-04-22 08:12 23.67006 41.75517 36984 ft 576 kts 65°
2026-04-22 08:13 23.69679 41.83792 36982 ft 577 kts 67°
2026-04-22 08:13 23.72240 41.92045 36979 ft 577 kts 67°
2026-04-22 08:14 23.74858 42.00340 36984 ft 576 kts 66°
2026-04-22 08:14 23.77635 42.08568 36971 ft 575 kts 64°
2026-04-22 08:15 23.80453 42.16679 36973 ft 575 kts 64°
2026-04-22 08:15 23.83269 42.24869 36962 ft 575 kts 65°
2026-04-22 08:16 23.86056 42.33072 36981 ft 575 kts 65°
2026-04-22 08:16 23.88817 42.41230 36969 ft 575 kts 65°
2026-04-22 08:17 23.91585 42.49417 36968 ft 575 kts 65°
2026-04-22 08:17 23.94357 42.57624 36971 ft 575 kts 65°
2026-04-22 08:18 23.97127 42.65843 36965 ft 575 kts 65°
2026-04-22 08:18 23.99874 42.74011 36965 ft 575 kts 65°
2026-04-22 08:19 24.02592 42.82244 36962 ft 576 kts 70°
2026-04-22 08:19 24.03409 42.86549 36964 ft 581 kts 82°
2026-04-22 08:19 24.03571 42.90976 36974 ft 582 kts 92°
2026-04-22 08:20 24.03166 42.95311 36975 ft 580 kts 103°
2026-04-22 08:20 24.02133 42.99561 36974 ft 576 kts 110°
2026-04-22 08:20 23.99696 43.07941 36975 ft 577 kts 111°
2026-04-22 08:21 23.97311 43.16279 36966 ft 578 kts 110°
2026-04-22 08:21 23.94998 43.24731 36966 ft 579 kts 109°
2026-04-22 08:22 23.92710 43.33194 36972 ft 580 kts 109°
2026-04-22 08:22 23.90422 43.41604 36964 ft 580 kts 109°
2026-04-22 08:23 23.88105 43.50063 36970 ft 581 kts 109°
2026-04-22 08:23 23.85778 43.58537 36944 ft 581 kts 109°
2026-04-22 08:24 23.83454 43.66982 36957 ft 580 kts 109°
2026-04-22 08:24 23.81137 43.75389 36942 ft 580 kts 109°
2026-04-22 08:25 23.78806 43.83824 36927 ft 579 kts 109°
2026-04-22 08:25 23.77048 43.92368 36923 ft 581 kts 98°
2026-04-22 08:26 23.76374 44.01178 36920 ft 580 kts 94°
2026-04-22 08:26 23.75811 44.09991 36914 ft 580 kts 94°
2026-04-22 08:27 23.75191 44.18704 36912 ft 579 kts 95°
2026-04-22 08:27 23.74521 44.27480 36923 ft 579 kts 95°
2026-04-22 08:28 23.73468 44.36184 36916 ft 577 kts 105°
2026-04-22 08:28 23.71097 44.44519 36921 ft 572 kts 116°
2026-04-22 08:29 23.67708 44.52333 36923 ft 568 kts 121°
2026-04-22 08:29 23.64170 44.59998 36922 ft 569 kts 121°
2026-04-22 08:30 23.61225 44.66444 36914 ft 569 kts 121°
2026-04-22 08:30 23.57167 44.75468 36924 ft 568 kts 120°
2026-04-22 08:31 23.53694 44.83225 36916 ft 568 kts 120°
2026-04-22 08:32 23.49064 44.93529 36916 ft 567 kts 120°
2026-04-22 08:32 23.45601 45.01208 36915 ft 567 kts 120°
2026-04-22 08:33 23.42117 45.08922 36913 ft 567 kts 120°
2026-04-22 08:33 23.38628 45.16633 36909 ft 566 kts 121°
2026-04-22 08:34 23.35140 45.24332 36909 ft 566 kts 121°
2026-04-22 08:34 23.31669 45.31983 36910 ft 565 kts 121°
2026-04-22 08:35 23.28184 45.39652 36906 ft 565 kts 121°
2026-04-22 08:35 23.24694 45.47319 36905 ft 565 kts 121°
2026-04-22 08:36 23.21199 45.54982 36902 ft 565 kts 121°
2026-04-22 08:36 23.17727 45.62584 36903 ft 565 kts 121°
2026-04-22 08:37 23.14219 45.70255 36893 ft 565 kts 121°
2026-04-22 08:37 23.10732 45.77866 36889 ft 565 kts 121°
2026-04-22 08:38 23.07221 45.85517 36888 ft 565 kts 121°
2026-04-22 08:38 23.03702 45.93176 36887 ft 565 kts 121°
2026-04-22 08:39 23.00204 46.00775 36888 ft 566 kts 121°
2026-04-22 08:39 22.96672 46.08438 36880 ft 566 kts 120°
2026-04-22 08:40 22.93143 46.16082 36899 ft 566 kts 120°
2026-04-22 08:40 22.89624 46.23692 36894 ft 568 kts 120°
2026-04-22 08:40 22.87850 46.27524 37030 ft 570 kts 120°
2026-04-22 08:41 22.86069 46.31370 37353 ft 569 kts 120°
2026-04-22 08:41 22.84293 46.35204 37682 ft 568 kts 120°
2026-04-22 08:41 22.82557 46.38989 37982 ft 568 kts 118°
2026-04-22 08:41 22.81001 46.42934 38243 ft 570 kts 114°
2026-04-22 08:42 22.79602 46.46953 38483 ft 570 kts 112°
2026-04-22 08:42 22.78238 46.50999 38696 ft 571 kts 112°
2026-04-22 08:42 22.76884 46.55055 38826 ft 572 kts 112°
2026-04-22 08:43 22.74143 46.63173 38875 ft 572 kts 112°
2026-04-22 08:43 22.71393 46.71165 38872 ft 566 kts 113°
2026-04-22 08:44 22.68623 46.79146 38870 ft 563 kts 113°
2026-04-22 08:44 22.65875 46.87047 38868 ft 561 kts 113°
2026-04-22 08:45 22.63119 46.94972 38872 ft 561 kts 113°
2026-04-22 08:45 22.60362 47.02890 38848 ft 562 kts 113°
2026-04-22 08:46 22.57610 47.10778 38868 ft 563 kts 113°
2026-04-22 08:46 22.54840 47.18706 38853 ft 564 kts 113°
2026-04-22 08:47 22.52048 47.26681 38845 ft 566 kts 112°
2026-04-22 08:47 22.49251 47.34655 38843 ft 567 kts 112°
2026-04-22 08:48 22.46461 47.42598 38836 ft 568 kts 112°
2026-04-22 08:48 22.43644 47.50598 38831 ft 569 kts 112°
2026-04-22 08:49 22.40839 47.58554 38825 ft 569 kts 112°
2026-04-22 08:49 22.38011 47.66561 38824 ft 569 kts 112°
2026-04-22 08:50 22.35181 47.74557 38820 ft 569 kts 112°
2026-04-22 08:50 22.32366 47.82499 38814 ft 568 kts 112°
2026-04-22 08:51 22.29537 47.90464 38813 ft 567 kts 112°
2026-04-22 08:51 22.26702 47.98433 38813 ft 567 kts 112°
2026-04-22 08:52 22.23872 48.06374 38810 ft 567 kts 112°
2026-04-22 08:52 22.21052 48.14273 38805 ft 566 kts 112°
2026-04-22 08:53 22.18217 48.22199 38805 ft 566 kts 112°
2026-04-22 08:53 22.15378 48.30127 38802 ft 565 kts 112°
2026-04-22 08:54 22.12610 48.38066 38802 ft 565 kts 108°
2026-04-22 08:54 22.10857 48.46269 38807 ft 565 kts 97°
2026-04-22 08:55 22.10241 48.54677 38804 ft 562 kts 90°
2026-04-22 08:55 22.09958 48.63130 38800 ft 562 kts 90°
2026-04-22 08:56 22.09649 48.71572 38793 ft 563 kts 90°
2026-04-22 08:56 22.09290 48.79962 38792 ft 563 kts 90°
2026-04-22 08:57 22.08905 48.88409 38793 ft 564 kts 90°
2026-04-22 08:57 22.08517 48.96862 38794 ft 564 kts 90°
2026-04-22 08:58 22.08130 49.05320 38792 ft 564 kts 90°
2026-04-22 08:58 22.07742 49.13719 38790 ft 564 kts 90°
2026-04-22 08:59 22.07347 49.22180 38792 ft 564 kts 90°
2026-04-22 08:59 22.06951 49.30576 38792 ft 563 kts 90°
2026-04-22 09:00 22.06547 49.39039 38789 ft 563 kts 90°
2026-04-22 09:00 22.06139 49.47476 38788 ft 562 kts 90°
2026-04-22 09:01 22.05728 49.55902 38791 ft 562 kts 90°
2026-04-22 09:01 22.05316 49.64262 38787 ft 562 kts 90°
2026-04-22 09:02 22.04897 49.72671 38786 ft 561 kts 90°
2026-04-22 09:02 22.04474 49.81084 38790 ft 561 kts 90°
2026-04-22 09:03 22.04048 49.89485 38794 ft 560 kts 90°
2026-04-22 09:03 22.03619 49.97836 38787 ft 560 kts 90°
2026-04-22 09:04 22.03183 50.06239 38784 ft 560 kts 90°
2026-04-22 09:04 22.02746 50.14576 38786 ft 560 kts 90°
2026-04-22 09:05 22.02303 50.22968 38791 ft 559 kts 90°
2026-04-22 09:05 22.01857 50.31311 38787 ft 559 kts 90°
2026-04-22 09:06 22.01407 50.39675 38784 ft 559 kts 90°
2026-04-22 09:06 22.00952 50.48033 38789 ft 558 kts 90°
2026-04-22 09:07 22.00492 50.56409 38787 ft 558 kts 90°
2026-04-22 09:07 22.00034 50.64722 38783 ft 558 kts 90°
2026-04-22 09:08 21.99627 50.73076 38781 ft 557 kts 89°
2026-04-22 09:08 21.99285 50.81441 38781 ft 557 kts 89°
2026-04-22 09:09 21.98938 50.89726 38780 ft 557 kts 89°
2026-04-22 09:09 21.98576 50.97908 38782 ft 557 kts 90°
2026-04-22 09:10 21.98201 51.06207 38778 ft 557 kts 90°
2026-04-22 09:10 21.97820 51.14558 38779 ft 557 kts 90°
2026-04-22 09:11 21.97436 51.22911 38774 ft 557 kts 90°
2026-04-22 09:11 21.97051 51.31207 38773 ft 556 kts 90°
2026-04-22 09:12 21.96660 51.39543 38771 ft 556 kts 90°
2026-04-22 09:12 21.96267 51.47861 38773 ft 555 kts 90°
2026-04-22 09:13 21.95875 51.56119 38768 ft 555 kts 90°
2026-04-22 09:13 21.95478 51.64436 38768 ft 555 kts 90°
2026-04-22 09:14 21.95076 51.72734 38766 ft 554 kts 90°
2026-04-22 09:14 21.94669 51.81048 38766 ft 554 kts 90°
2026-04-22 09:15 21.94259 51.89291 38763 ft 554 kts 90°
2026-04-22 09:15 21.93842 51.97604 38763 ft 554 kts 90°
2026-04-22 09:16 21.93425 52.05849 38761 ft 554 kts 90°
2026-04-22 09:16 21.93001 52.14152 38766 ft 554 kts 90°
2026-04-22 09:17 21.92574 52.22437 38765 ft 553 kts 90°
2026-04-22 09:17 21.92144 52.30681 38761 ft 553 kts 90°
2026-04-22 09:18 21.91705 52.38961 38762 ft 553 kts 90°
2026-04-22 09:18 21.91338 52.45843 38762 ft 553 kts 90°
2026-04-22 09:19 21.90820 52.55456 38763 ft 552 kts 90°
2026-04-22 09:19 21.90447 52.62336 38764 ft 552 kts 90°
2026-04-22 09:20 21.89920 52.71959 38756 ft 552 kts 90°
2026-04-22 09:20 21.89537 52.78872 38764 ft 551 kts 90°
2026-04-22 09:21 21.89079 52.87072 38761 ft 551 kts 90°
2026-04-22 09:21 21.88616 52.95305 38759 ft 551 kts 90°
2026-04-22 09:22 21.88148 53.03561 38760 ft 550 kts 90°
2026-04-22 09:22 21.87679 53.11743 38762 ft 550 kts 90°
2026-04-22 09:23 21.87204 53.19980 38760 ft 550 kts 90°
2026-04-22 09:23 21.86724 53.28208 38762 ft 550 kts 90°
2026-04-22 09:24 21.86240 53.36437 38763 ft 550 kts 90°
2026-04-22 09:24 21.85756 53.44618 38760 ft 550 kts 90°
2026-04-22 09:25 21.85264 53.52851 38758 ft 550 kts 90°
2026-04-22 09:25 21.84768 53.61086 38760 ft 550 kts 90°
2026-04-22 09:26 21.84271 53.69265 38762 ft 550 kts 90°
2026-04-22 09:26 21.83768 53.77479 38757 ft 550 kts 90°
2026-04-22 09:27 21.83261 53.85694 38763 ft 549 kts 90°
2026-04-22 09:27 21.82753 53.93858 38759 ft 549 kts 91°
2026-04-22 09:28 21.82238 54.02061 38762 ft 549 kts 91°
2026-04-22 09:28 21.81720 54.10265 38762 ft 548 kts 91°
2026-04-22 09:29 21.81197 54.18464 38756 ft 548 kts 91°
2026-04-22 09:29 21.80672 54.26638 38765 ft 548 kts 91°
2026-04-22 09:30 21.80146 54.34763 38761 ft 547 kts 91°
2026-04-22 09:30 21.79613 54.42941 38758 ft 547 kts 91°
2026-04-22 09:31 21.79076 54.51125 38761 ft 547 kts 91°
2026-04-22 09:31 21.78534 54.59293 38764 ft 546 kts 91°
2026-04-22 09:32 21.77984 54.67404 38757 ft 546 kts 91°
2026-04-22 09:32 21.77426 54.75560 38763 ft 545 kts 91°
2026-04-22 09:33 21.76870 54.83655 38767 ft 545 kts 91°
2026-04-22 09:33 21.76308 54.91803 38771 ft 546 kts 91°
2026-04-22 09:34 21.75742 54.99960 38768 ft 546 kts 91°
2026-04-22 09:34 21.75685 55.08026 38777 ft 540 kts 80°
2026-04-22 09:35 21.76911 55.15937 38777 ft 532 kts 69°
2026-04-22 09:35 21.77954 55.19756 38781 ft 530 kts 67°
2026-04-22 09:35 21.80163 55.27340 38784 ft 530 kts 67°
2026-04-22 09:36 21.82342 55.34889 38788 ft 531 kts 67°
2026-04-22 09:36 21.84490 55.42522 38791 ft 532 kts 68°
2026-04-22 09:37 21.86604 55.50112 38787 ft 532 kts 68°
2026-04-22 09:37 21.88726 55.57743 38795 ft 532 kts 68°
2026-04-22 09:38 21.90848 55.65371 38798 ft 531 kts 68°
2026-04-22 09:38 21.92971 55.73015 38803 ft 531 kts 68°
2026-04-22 09:39 21.95074 55.80605 38807 ft 531 kts 68°
2026-04-22 09:39 21.97189 55.88252 38809 ft 531 kts 68°
2026-04-22 09:40 21.99294 55.95881 38807 ft 531 kts 68°
2026-04-22 09:40 22.01445 56.03487 38822 ft 528 kts 64°
2026-04-22 09:41 22.04406 56.10585 38833 ft 517 kts 53°
2026-04-22 09:41 22.08215 56.17128 38839 ft 514 kts 50°
2026-04-22 09:42 22.12078 56.23640 38841 ft 514 kts 51°
2026-04-22 09:42 22.15860 56.30161 38831 ft 515 kts 51°
2026-04-22 09:43 22.19828 56.36566 38837 ft 508 kts 44°
2026-04-22 09:43 22.24487 56.42149 38849 ft 502 kts 39°
2026-04-22 09:44 22.29293 56.47635 38853 ft 502 kts 39°
2026-04-22 09:44 22.34077 56.53155 38862 ft 503 kts 40°
2026-04-22 09:45 22.38838 56.58705 38866 ft 503 kts 40°
2026-04-22 09:45 22.43584 56.64259 38863 ft 503 kts 40°
2026-04-22 09:46 22.48348 56.69839 38870 ft 503 kts 40°
2026-04-22 09:46 22.53078 56.75380 38880 ft 503 kts 40°
2026-04-22 09:47 22.57829 56.80951 38888 ft 503 kts 40°
2026-04-22 09:47 22.62586 56.86537 38888 ft 503 kts 40°
2026-04-22 09:48 22.67305 56.92082 38900 ft 503 kts 40°
2026-04-22 09:48 22.72062 56.97679 38904 ft 503 kts 40°
2026-04-22 09:49 22.76765 57.03218 38916 ft 502 kts 40°
2026-04-22 09:49 22.81495 57.08797 38916 ft 502 kts 40°
2026-04-22 09:50 22.86229 57.14386 38916 ft 502 kts 40°
2026-04-22 09:50 22.90958 57.19975 38920 ft 502 kts 40°
2026-04-22 09:51 22.95653 57.25530 38923 ft 502 kts 40°
2026-04-22 09:51 22.99898 57.31642 38931 ft 513 kts 53°
2026-04-22 09:52 23.03009 57.38674 38929 ft 523 kts 63°
2026-04-22 09:52 23.05529 57.46104 38919 ft 523 kts 64°
2026-04-22 09:53 23.08030 57.53538 38926 ft 524 kts 64°
2026-04-22 09:53 23.10591 57.60963 38897 ft 524 kts 64°
2026-04-22 09:54 23.13151 57.68330 38902 ft 523 kts 64°
2026-04-22 09:54 23.15713 57.75721 38891 ft 522 kts 64°
2026-04-22 09:55 23.18266 57.83110 38873 ft 521 kts 64°
2026-04-22 09:55 23.20799 57.90455 38875 ft 519 kts 64°
2026-04-22 09:56 23.23333 57.97811 38859 ft 519 kts 64°
2026-04-22 09:56 23.25893 58.05101 38854 ft 518 kts 62°
2026-04-22 09:57 23.28700 58.12345 38836 ft 518 kts 61°
2026-04-22 09:57 23.31451 58.19371 38828 ft 519 kts 62°
2026-04-22 09:58 23.34241 58.26639 38814 ft 519 kts 62°
2026-04-22 09:58 23.36994 58.33865 38810 ft 518 kts 62°
2026-04-22 09:59 23.39754 58.41115 38810 ft 516 kts 62°
2026-04-22 09:59 23.42482 58.48357 38807 ft 516 kts 63°
2026-04-22 10:00 23.45119 58.55563 38799 ft 514 kts 63°
2026-04-22 10:00 23.47764 58.62821 38814 ft 513 kts 63°
2026-04-22 10:01 23.50396 58.70021 38803 ft 513 kts 63°
2026-04-22 10:01 23.53040 58.77252 38796 ft 513 kts 63°
2026-04-22 10:02 23.55683 58.84493 38803 ft 513 kts 63°
2026-04-22 10:02 23.58310 58.91700 38802 ft 513 kts 63°
2026-04-22 10:03 23.60946 58.98950 38803 ft 513 kts 63°
2026-04-22 10:03 23.63564 59.06160 38791 ft 513 kts 63°
2026-04-22 10:04 23.66196 59.13424 38790 ft 513 kts 64°
2026-04-22 10:04 23.68798 59.20614 38788 ft 512 kts 64°
2026-04-22 10:05 23.71414 59.27855 38789 ft 511 kts 64°
2026-04-22 10:05 23.74019 59.35079 38785 ft 511 kts 64°
2026-04-22 10:06 23.76180 59.41082 38801 ft 510 kts 64°
2026-04-22 10:06 23.79139 59.49495 38801 ft 511 kts 68°
2026-04-22 10:07 23.80570 59.55790 38792 ft 516 kts 76°
2026-04-22 10:07 23.81745 59.63520 38792 ft 516 kts 77°
2026-04-22 10:08 23.82945 59.71247 38797 ft 515 kts 76°
2026-04-22 10:08 23.84193 59.78942 38800 ft 514 kts 76°
2026-04-22 10:09 23.85417 59.86608 38796 ft 514 kts 77°
2026-04-22 10:09 23.86626 59.94322 38797 ft 513 kts 77°
2026-04-22 10:10 23.87823 60.01976 38801 ft 512 kts 77°
2026-04-22 10:10 23.89022 60.09651 38795 ft 512 kts 77°
2026-04-22 10:11 23.90211 60.17280 38798 ft 511 kts 77°
2026-04-22 10:11 23.91402 60.24945 38801 ft 510 kts 77°
2026-04-22 10:12 23.92587 60.32603 38804 ft 510 kts 77°
2026-04-22 10:12 23.93759 60.40196 38796 ft 509 kts 77°
2026-04-22 10:13 23.94933 60.47837 38794 ft 508 kts 77°
2026-04-22 10:13 23.96103 60.55470 38799 ft 508 kts 77°
2026-04-22 10:14 23.97259 60.63043 38799 ft 507 kts 77°
2026-04-22 10:14 23.98418 60.70657 38804 ft 506 kts 77°
2026-04-22 10:15 23.99570 60.78250 38804 ft 506 kts 77°
2026-04-22 10:15 24.00717 60.85843 38801 ft 505 kts 78°
2026-04-22 10:16 24.01852 60.93379 38799 ft 505 kts 78°
2026-04-22 10:16 24.02989 61.00952 38799 ft 504 kts 78°
2026-04-22 10:17 24.04124 61.08536 38799 ft 504 kts 78°
2026-04-22 10:17 24.05254 61.16119 38804 ft 504 kts 78°
2026-04-22 10:18 24.06379 61.23691 38805 ft 504 kts 78°
2026-04-22 10:18 24.07495 61.31233 38805 ft 504 kts 78°
2026-04-22 10:19 24.08614 61.38800 38812 ft 503 kts 78°
2026-04-22 10:19 24.09730 61.46339 38808 ft 503 kts 78°
2026-04-22 10:20 24.10846 61.53908 38812 ft 503 kts 78°
2026-04-22 10:20 24.11957 61.61482 38810 ft 503 kts 78°
2026-04-22 10:21 24.13063 61.69043 38810 ft 503 kts 78°
2026-04-22 10:21 24.14162 61.76579 38816 ft 502 kts 78°
2026-04-22 10:22 24.15243 61.84152 38814 ft 502 kts 79°
2026-04-22 10:22 24.16262 61.91676 38812 ft 502 kts 79°
2026-04-22 10:23 24.17274 61.99236 38812 ft 501 kts 79°
2026-04-22 10:23 24.18290 62.06800 38817 ft 500 kts 79°
2026-04-22 10:24 24.19300 62.14307 38819 ft 500 kts 79°
2026-04-22 10:24 24.20311 62.21853 38821 ft 500 kts 80°
2026-04-22 10:25 24.21313 62.29351 38819 ft 499 kts 80°
2026-04-22 10:25 24.22316 62.36897 38823 ft 499 kts 80°
2026-04-22 10:26 24.23314 62.44436 38819 ft 499 kts 80°
2026-04-22 10:26 24.24302 62.51924 38820 ft 499 kts 80°
2026-04-22 10:27 24.25292 62.59457 38821 ft 499 kts 80°
2026-04-22 10:27 24.26279 62.66995 38821 ft 499 kts 80°
2026-04-22 10:28 24.27263 62.74542 38817 ft 499 kts 80°
2026-04-22 10:28 24.28237 62.82038 38819 ft 499 kts 80°
2026-04-22 10:29 24.29214 62.89595 38821 ft 500 kts 80°
2026-04-22 10:29 24.30186 62.97136 38822 ft 500 kts 80°
2026-04-22 10:30 24.31156 63.04690 38823 ft 500 kts 81°
2026-04-22 10:30 24.32118 63.12221 38822 ft 500 kts 81°
2026-04-22 10:31 24.33080 63.19775 38823 ft 500 kts 81°
2026-04-22 10:31 24.34039 63.27335 38816 ft 500 kts 81°
2026-04-22 10:32 24.34993 63.34895 38824 ft 500 kts 81°
2026-04-22 10:32 24.35940 63.42423 38818 ft 500 kts 81°
2026-04-22 10:33 24.36891 63.50012 38818 ft 500 kts 81°
2026-04-22 10:33 24.37829 63.57536 38819 ft 501 kts 81°
2026-04-22 10:34 24.38771 63.65114 38818 ft 501 kts 81°
2026-04-22 10:34 24.39704 63.72655 38817 ft 501 kts 81°
2026-04-22 10:35 24.40635 63.80214 38814 ft 501 kts 81°
2026-04-22 10:35 24.41567 63.87812 38816 ft 501 kts 81°
2026-04-22 10:36 24.42496 63.95416 38819 ft 501 kts 81°
2026-04-22 10:36 24.43414 64.02964 38819 ft 501 kts 82°
2026-04-22 10:37 24.44788 64.14316 38817 ft 501 kts 82°
2026-04-22 10:38 24.45703 64.21918 38817 ft 501 kts 82°
2026-04-22 10:38 24.46614 64.29520 38819 ft 502 kts 82°
2026-04-22 10:39 24.47516 64.37083 38814 ft 502 kts 82°
2026-04-22 10:39 24.48420 64.44684 38813 ft 502 kts 82°
2026-04-22 10:40 24.49320 64.52293 38817 ft 502 kts 82°
2026-04-22 10:40 24.50216 64.59906 38815 ft 502 kts 82°
2026-04-22 10:41 24.51104 64.67480 38808 ft 502 kts 82°
2026-04-22 10:41 24.51993 64.75095 38811 ft 502 kts 82°
2026-04-22 10:42 24.52883 64.82704 38807 ft 502 kts 81°
2026-04-22 10:42 24.54082 64.90270 38805 ft 502 kts 78°
2026-04-22 10:43 24.55404 64.97783 38808 ft 503 kts 78°
2026-04-22 10:43 24.56711 65.05345 38810 ft 503 kts 79°
2026-04-22 10:44 24.57980 65.12869 38804 ft 503 kts 79°
2026-04-22 10:44 24.59250 65.20444 38801 ft 503 kts 79°
2026-04-22 10:45 24.60517 65.28016 38801 ft 503 kts 79°
2026-04-22 10:45 24.61783 65.35593 38801 ft 503 kts 79°
2026-04-22 10:46 24.63038 65.43176 38800 ft 503 kts 79°
2026-04-22 10:46 24.64276 65.50718 38801 ft 503 kts 79°
2026-04-22 10:47 24.65512 65.58261 38796 ft 503 kts 79°
2026-04-22 10:47 24.66752 65.65850 38796 ft 503 kts 79°
2026-04-22 10:48 24.67979 65.73387 38794 ft 503 kts 79°
2026-04-22 10:48 24.69207 65.80951 38791 ft 502 kts 79°
2026-04-22 10:49 24.70434 65.88531 38792 ft 502 kts 79°
2026-04-22 10:49 24.71657 65.96110 38791 ft 502 kts 80°
2026-04-22 10:50 24.72867 66.03641 38789 ft 502 kts 80°
2026-04-22 10:50 24.74082 66.11223 38793 ft 502 kts 80°
2026-04-22 10:51 24.75283 66.18744 38787 ft 502 kts 80°
2026-04-22 10:51 24.76488 66.26318 38786 ft 501 kts 80°
2026-04-22 10:52 24.77690 66.33891 38787 ft 501 kts 80°
2026-04-22 10:52 24.78878 66.41406 38785 ft 501 kts 80°
2026-04-22 10:53 24.80071 66.48979 38790 ft 501 kts 80°
2026-04-22 10:53 24.81258 66.56540 38785 ft 501 kts 80°
2026-04-22 10:54 24.82437 66.64070 38791 ft 501 kts 80°
2026-04-22 10:54 24.83639 66.71630 38782 ft 501 kts 79°
2026-04-22 10:55 24.84681 66.77961 38791 ft 501 kts 79°
2026-04-22 10:55 24.85914 66.85466 38795 ft 500 kts 79°
2026-04-22 10:56 24.87142 66.93021 38800 ft 500 kts 79°
2026-04-22 10:56 24.88362 67.00560 38790 ft 500 kts 79°
2026-04-22 10:57 24.89572 67.08062 38790 ft 499 kts 79°
2026-04-22 10:57 24.91135 67.15490 38777 ft 497 kts 65°
2026-04-22 10:57 24.92769 67.18834 38791 ft 494 kts 54°
2026-04-22 10:58 24.94913 67.21787 38789 ft 492 kts 43°
2026-04-22 10:58 25.00116 67.26592 38788 ft 490 kts 37°
2026-04-22 10:59 25.05436 67.31313 38782 ft 491 kts 37°
2026-04-22 10:59 25.10722 67.36140 38768 ft 492 kts 38°
2026-04-22 11:00 25.15945 67.40970 38767 ft 493 kts 38°
2026-04-22 11:00 25.21225 67.45851 38767 ft 493 kts 38°
2026-04-22 11:01 25.26509 67.50709 38769 ft 494 kts 38°
2026-04-22 11:01 25.31781 67.55512 38757 ft 494 kts 38°
2026-04-22 11:02 25.37089 67.60353 38760 ft 493 kts 38°
2026-04-22 11:02 25.42356 67.65171 38744 ft 493 kts 38°
2026-04-22 11:03 25.47639 67.70013 38741 ft 493 kts 38°
2026-04-22 11:03 25.52925 67.74863 38741 ft 492 kts 38°
2026-04-22 11:04 25.58196 67.79706 38731 ft 491 kts 38°
2026-04-22 11:04 25.63435 67.84524 38730 ft 491 kts 38°
2026-04-22 11:05 25.68696 67.89367 38724 ft 491 kts 38°
2026-04-22 11:05 25.73927 67.94189 38714 ft 491 kts 38°
2026-04-22 11:06 25.79178 67.99035 38713 ft 491 kts 38°
2026-04-22 11:06 25.84432 68.03890 38707 ft 491 kts 38°
2026-04-22 11:07 25.89691 68.08755 38701 ft 491 kts 38°
2026-04-22 11:07 25.94910 68.13590 38692 ft 491 kts 37°
2026-04-22 11:08 26.00159 68.18458 38691 ft 491 kts 37°
2026-04-22 11:08 26.05416 68.23339 38696 ft 492 kts 37°
2026-04-22 11:09 26.10653 68.28208 38695 ft 492 kts 38°
2026-04-22 11:09 26.15925 68.33115 38690 ft 493 kts 38°
2026-04-22 11:10 26.21161 68.37994 38688 ft 493 kts 38°
2026-04-22 11:10 26.26538 68.42757 38689 ft 492 kts 35°
2026-04-22 11:11 26.32026 68.47337 38688 ft 492 kts 34°
2026-04-22 11:11 26.37479 68.51925 38689 ft 493 kts 35°
2026-04-22 11:12 26.42936 68.56576 38688 ft 493 kts 35°
2026-04-22 11:12 26.48383 68.61236 38693 ft 493 kts 35°
2026-04-22 11:13 26.53801 68.65873 38692 ft 493 kts 35°
2026-04-22 11:13 26.59259 68.70548 38689 ft 493 kts 35°
2026-04-22 11:14 26.64675 68.75174 38690 ft 493 kts 35°
2026-04-22 11:14 26.70138 68.79816 38689 ft 492 kts 35°
2026-04-22 11:15 26.75599 68.84463 38690 ft 492 kts 35°
2026-04-22 11:15 26.81060 68.89121 38693 ft 492 kts 35°
2026-04-22 11:16 26.86477 68.93750 38691 ft 492 kts 35°
2026-04-22 11:16 26.91937 68.98421 38690 ft 492 kts 35°
2026-04-22 11:17 26.97345 69.03053 38688 ft 491 kts 35°
2026-04-22 11:17 27.02747 69.07685 38693 ft 491 kts 35°
2026-04-22 11:18 27.08182 69.12352 38687 ft 490 kts 35°
2026-04-22 11:18 27.13597 69.17007 38686 ft 490 kts 35°
2026-04-22 11:19 27.19026 69.21681 38687 ft 489 kts 35°
2026-04-22 11:19 27.24405 69.26317 38687 ft 489 kts 35°
2026-04-22 11:20 27.29798 69.31006 38689 ft 489 kts 36°
2026-04-22 11:20 27.35108 69.35736 38690 ft 489 kts 36°
2026-04-22 11:21 27.40439 69.40507 38686 ft 489 kts 36°
2026-04-22 11:21 27.45785 69.45284 38684 ft 489 kts 36°
2026-04-22 11:22 27.51126 69.50052 38679 ft 489 kts 36°
2026-04-22 11:22 27.56425 69.54787 38682 ft 489 kts 36°
2026-04-22 11:23 27.61758 69.59560 38677 ft 490 kts 36°
2026-04-22 11:23 27.67109 69.64355 38679 ft 490 kts 36°
2026-04-22 11:24 27.72460 69.69157 38680 ft 490 kts 36°
2026-04-22 11:24 27.77781 69.73938 38675 ft 490 kts 36°
2026-04-22 11:25 27.83122 69.78743 38671 ft 490 kts 36°
2026-04-22 11:25 27.88461 69.83552 38675 ft 490 kts 36°
2026-04-22 11:26 27.93799 69.88367 38679 ft 490 kts 36°
2026-04-22 11:26 27.99110 69.93164 38674 ft 490 kts 36°
2026-04-22 11:27 28.04450 69.97994 38675 ft 491 kts 36°
2026-04-22 11:27 28.09792 70.02831 38672 ft 490 kts 36°
2026-04-22 11:28 28.15085 70.07631 38673 ft 490 kts 36°
2026-04-22 11:28 28.20422 70.12477 38675 ft 490 kts 36°
2026-04-22 11:29 28.25754 70.17325 38667 ft 490 kts 37°
2026-04-22 11:29 28.31052 70.22149 38673 ft 490 kts 37°
2026-04-22 11:30 28.36349 70.27030 38673 ft 491 kts 39°
2026-04-22 11:30 28.41160 70.32566 38671 ft 492 kts 45°
2026-04-22 11:31 28.45746 70.38277 38673 ft 492 kts 46°
2026-04-22 11:31 28.50378 70.44031 38673 ft 492 kts 45°
2026-04-22 11:32 28.55004 70.49731 38667 ft 492 kts 45°
2026-04-22 11:32 28.59661 70.55453 38672 ft 492 kts 45°
2026-04-22 11:33 28.64315 70.61177 38672 ft 492 kts 45°
2026-04-22 11:33 28.68978 70.66924 38671 ft 492 kts 45°
2026-04-22 11:34 28.73599 70.72629 38670 ft 493 kts 45°
2026-04-22 11:34 28.78251 70.78382 38671 ft 493 kts 45°
2026-04-22 11:35 28.82905 70.84144 38668 ft 493 kts 45°
2026-04-22 11:35 28.87535 70.89884 38669 ft 493 kts 45°
2026-04-22 11:36 28.92177 70.95649 38670 ft 493 kts 45°
2026-04-22 11:36 28.96796 71.01393 38669 ft 493 kts 45°
2026-04-22 11:37 29.01427 71.07160 38653 ft 492 kts 45°
2026-04-22 11:37 29.06062 71.12939 38669 ft 492 kts 45°
2026-04-22 11:38 29.10693 71.18722 38673 ft 492 kts 45°
2026-04-22 11:38 29.17603 71.27367 38680 ft 492 kts 45°
2026-04-22 11:39 29.22196 71.33125 38660 ft 492 kts 45°
2026-04-22 11:39 29.26822 71.38932 38674 ft 492 kts 45°
2026-04-22 11:40 29.31427 71.44737 38680 ft 492 kts 46°
2026-04-22 11:40 29.35985 71.50594 38661 ft 492 kts 46°
2026-04-22 11:41 29.40511 71.56438 38665 ft 492 kts 46°
2026-04-22 11:41 29.45072 71.62325 38674 ft 492 kts 46°
2026-04-22 11:42 29.48861 71.67215 38692 ft 492 kts 46°
2026-04-22 11:42 29.53417 71.73100 38675 ft 492 kts 46°
2026-04-22 11:43 29.58712 71.79953 38676 ft 492 kts 46°
2026-04-22 11:43 29.62490 71.84850 38675 ft 493 kts 46°
2026-04-22 11:44 29.67045 71.90761 38677 ft 493 kts 46°
2026-04-22 11:44 29.71594 71.96674 38681 ft 493 kts 46°
2026-04-22 11:45 29.76114 72.02559 38679 ft 493 kts 46°
2026-04-22 11:45 29.80663 72.08490 38679 ft 493 kts 46°
2026-04-22 11:46 29.85200 72.14413 38679 ft 493 kts 46°
2026-04-22 11:46 29.87295 72.17544 38666 ft 495 kts 59°
2026-04-22 11:46 29.88657 72.21171 38705 ft 495 kts 70°
2026-04-22 11:47 29.90784 72.28746 38680 ft 496 kts 71°
2026-04-22 11:47 29.92928 72.36263 38683 ft 497 kts 70°
2026-04-22 11:48 29.95184 72.43825 38685 ft 498 kts 70°
2026-04-22 11:48 29.97459 72.51390 38683 ft 499 kts 70°
2026-04-22 11:49 29.99709 72.58923 38685 ft 499 kts 70°
2026-04-22 11:49 30.02697 72.66079 38678 ft 492 kts 47°
2026-04-22 11:50 30.07359 72.71880 38686 ft 492 kts 44°
2026-04-22 11:50 30.11985 72.77641 38686 ft 493 kts 46°
2026-04-22 11:51 30.16547 72.83531 38486 ft 490 kts 46°
2026-04-22 11:51 30.18817 72.86477 38142 ft 490 kts 46°
2026-04-22 11:51 30.21101 72.89435 37700 ft 492 kts 46°
2026-04-22 11:52 30.23387 72.92399 37246 ft 495 kts 46°
2026-04-22 11:52 30.25681 72.95380 36485 ft 497 kts 46°
2026-04-22 11:52 30.27981 72.98371 35641 ft 498 kts 47°
2026-04-22 11:52 30.30291 73.01377 34669 ft 501 kts 47°
2026-04-22 11:53 30.32619 73.04410 33648 ft 507 kts 47°
2026-04-22 11:53 30.34975 73.07481 32432 ft 512 kts 47°
2026-04-22 11:53 30.37321 73.10542 31267 ft 516 kts 47°
2026-04-22 11:53 30.39716 73.13670 30224 ft 518 kts 48°
2026-04-22 11:54 30.42093 73.16778 29365 ft 513 kts 48°
2026-04-22 11:54 30.44459 73.19873 28471 ft 509 kts 48°
2026-04-22 11:54 30.46799 73.22938 27652 ft 504 kts 48°
2026-04-22 11:54 30.49114 73.25970 26875 ft 499 kts 48°
2026-04-22 11:55 30.51398 73.28965 26122 ft 494 kts 48°
2026-04-22 11:55 30.53640 73.31906 25383 ft 490 kts 48°
2026-04-22 11:55 30.55890 73.34860 24630 ft 486 kts 48°
2026-04-22 11:55 30.58126 73.37798 23878 ft 483 kts 48°
2026-04-22 11:56 30.60346 73.40717 23115 ft 480 kts 48°
2026-04-22 11:56 30.62560 73.43630 22267 ft 477 kts 48°
2026-04-22 11:56 30.64721 73.46476 21531 ft 472 kts 48°
2026-04-22 11:56 30.66887 73.49331 20835 ft 467 kts 48°
2026-04-22 11:57 30.69022 73.52146 20143 ft 462 kts 48°
2026-04-22 11:57 30.71127 73.54925 19503 ft 456 kts 48°
2026-04-22 11:57 30.73203 73.57667 18802 ft 443 kts 48°
2026-04-22 11:57 30.75202 73.60311 18083 ft 428 kts 47°
2026-04-22 11:58 30.77138 73.62872 17352 ft 414 kts 48°
2026-04-22 11:58 30.79012 73.65352 16679 ft 401 kts 48°
2026-04-22 11:58 30.80804 73.67724 16068 ft 389 kts 48°
2026-04-22 11:58 30.82577 73.70072 15490 ft 387 kts 49°
2026-04-22 11:59 30.84361 73.72436 14898 ft 391 kts 49°
2026-04-22 11:59 30.86170 73.74837 14288 ft 396 kts 49°
2026-04-22 11:59 30.88000 73.77266 13658 ft 399 kts 49°
2026-04-22 11:59 30.89837 73.79704 12969 ft 399 kts 49°
2026-04-22 12:00 30.91665 73.82134 12305 ft 397 kts 49°
2026-04-22 12:00 30.93476 73.84542 11675 ft 394 kts 49°
2026-04-22 12:00 30.95251 73.86905 11062 ft 391 kts 48°
2026-04-22 12:00 30.97046 73.89295 10581 ft 386 kts 48°
2026-04-22 12:01 30.98775 73.91599 10398 ft 372 kts 48°
2026-04-22 12:01 31.00450 73.93832 10234 ft 358 kts 48°
2026-04-22 12:01 31.02068 73.95991 9948 ft 349 kts 48°
2026-04-22 12:01 31.03653 73.98105 9634 ft 342 kts 48°
2026-04-22 12:02 31.05202 74.00173 9296 ft 335 kts 47°
2026-04-22 12:02 31.06725 74.02209 8971 ft 328 kts 47°
2026-04-22 12:02 31.08210 74.04193 8651 ft 322 kts 47°
2026-04-22 12:02 31.09655 74.06126 8331 ft 316 kts 47°
2026-04-22 12:03 31.11091 74.08048 8010 ft 311 kts 47°
2026-04-22 12:03 31.12505 74.09940 7703 ft 306 kts 47°
2026-04-22 12:03 31.13895 74.11802 7389 ft 301 kts 47°
2026-04-22 12:03 31.15262 74.13634 7074 ft 297 kts 47°
2026-04-22 12:04 31.16597 74.15424 6947 ft 285 kts 47°
2026-04-22 12:04 31.17895 74.17165 6906 ft 286 kts 47°
2026-04-22 12:04 31.19225 74.18947 6575 ft 292 kts 47°
2026-04-22 12:04 31.20539 74.20710 6241 ft 289 kts 47°
2026-04-22 12:05 31.21839 74.22459 5915 ft 285 kts 47°
2026-04-22 12:05 31.23131 74.24195 5603 ft 281 kts 47°
2026-04-22 12:05 31.24410 74.25913 5289 ft 278 kts 47°
2026-04-22 12:05 31.25676 74.27616 4978 ft 275 kts 47°
2026-04-22 12:06 31.26924 74.29295 4672 ft 272 kts 47°
2026-04-22 12:06 31.28137 74.30929 4509 ft 264 kts 47°
2026-04-22 12:06 31.29328 74.32533 4383 ft 262 kts 47°
2026-04-22 12:06 31.30512 74.34126 4285 ft 254 kts 47°
2026-04-22 12:07 31.31645 74.35654 4132 ft 241 kts 47°
2026-04-22 12:07 31.32699 74.37076 4056 ft 227 kts 47°
2026-04-22 12:07 31.33727 74.38464 3961 ft 227 kts 46°
2026-04-22 12:07 31.34888 74.39680 3675 ft 223 kts 24°
2026-04-22 12:08 31.36356 74.40078 3457 ft 214 kts
2026-04-22 12:08 31.37823 74.40196 3253 ft 206 kts 359°
2026-04-22 12:08 31.39220 74.40231 3017 ft 196 kts 358°
2026-04-22 12:08 31.40569 74.40251 2815 ft 193 kts 358°
2026-04-22 12:09 31.41904 74.40274 2645 ft 190 kts 359°
2026-04-22 12:09 31.43225 74.40298 2601 ft 190 kts 358°
2026-04-22 12:09 31.44551 74.40322 2534 ft 190 kts 358°
2026-04-22 12:09 31.45852 74.40344 2491 ft 182 kts 358°
2026-04-22 12:10 31.47089 74.40367 2265 ft 173 kts 359°
2026-04-22 12:10 31.48242 74.40392 1898 ft 163 kts 358°
2026-04-22 12:10 31.49351 74.40441 1430 ft 156 kts 359°
2026-04-22 12:10 31.50438 74.40468 1408 ft 154 kts 358°
2026-04-22 12:11 31.51515 74.40440 1587 ft 154 kts 348°
2026-04-22 12:11 31.52399 74.39778 1702 ft 156 kts 302°
2026-04-22 12:11 31.52640 74.38558 1946 ft 156 kts 274°
2026-04-22 12:11 31.52690 74.37250 2124 ft 166 kts 264°
2026-04-22 12:12 31.52102 74.36069 2435 ft 183 kts 221°
2026-04-22 12:12 31.50820 74.35544 2838 ft 206 kts 186°
2026-04-22 12:12 31.49357 74.35527 2969 ft 216 kts 182°
2026-04-22 12:12 31.47848 74.35513 2997 ft 217 kts 182°
2026-04-22 12:13 31.46337 74.35494 2994 ft 216 kts 182°
2026-04-22 12:13 31.44836 74.35481 2995 ft 214 kts 182°
2026-04-22 12:13 31.43355 74.35482 2983 ft 213 kts 182°
2026-04-22 12:13 31.41862 74.35486 2934 ft 214 kts 181°
2026-04-22 12:14 31.40441 74.35887 2679 ft 217 kts 151°
2026-04-22 12:14 31.39470 74.37166 2592 ft 210 kts 112°
2026-04-22 12:14 31.39347 74.38815 2527 ft 204 kts 72°
2026-04-22 12:14 31.40107 74.40137 2499 ft 195 kts 32°
2026-04-22 12:15 31.41333 74.40553 2443 ft 180 kts 353°
2026-04-22 12:15 31.42556 74.40404 2246 ft 172 kts 351°
2026-04-22 12:15 31.43694 74.40320 2037 ft 157 kts 356°
2026-04-22 12:15 31.44760 74.40326 1848 ft 152 kts 357°
2026-04-22 12:16 31.45813 74.40345 1664 ft 148 kts 356°
2026-04-22 12:16 31.46836 74.40361 1473 ft 148 kts 358°
2026-04-22 12:16 31.47875 74.40381 1297 ft 150 kts 357°
2026-04-22 12:16 31.48910 74.40395 1095 ft 151 kts 355°
2026-04-22 12:17 31.49964 74.40381 927 ft 150 kts
2026-04-22 12:17 31.51017 74.40447 767 ft 155 kts
2026-04-22 12:17 31.52053 74.40461 725 ft 137 kts 360°
2026-04-22 12:17 31.52855 74.40473 725 ft 93 kts 360°
2026-04-22 12:18 31.53389 74.40480 727 ft 66 kts
2026-04-22 12:18 31.53621 74.40494 729 ft 19 kts 24°
2026-04-22 12:18 31.53633 74.40595 729 ft 12 kts 137°
2026-04-22 12:18 31.53566 74.40664 726 ft 14 kts 146°
2026-04-22 12:19 31.53475 74.40690 728 ft 14 kts 175°
2026-04-22 12:19 31.53380 74.40694 726 ft 14 kts 181°
2026-04-22 12:19 31.53284 74.40692 728 ft 14 kts 181°
2026-04-22 12:19 31.53189 74.40690 726 ft 14 kts 181°
2026-04-22 12:20 31.53091 74.40688 726 ft 14 kts 181°
2026-04-22 12:20 31.52992 74.40685 726 ft 14 kts 183°
2026-04-22 12:20 31.52890 74.40679 725 ft 14 kts 183°
2026-04-22 12:20 31.52789 74.40676 725 ft 14 kts 180°
2026-04-22 12:21 31.52688 74.40675 726 ft 14 kts 180°
2026-04-22 12:21 31.52587 74.40674 726 ft 14 kts 180°
2026-04-22 12:21 31.52486 74.40674 724 ft 14 kts 180°
2026-04-22 12:21 31.52409 74.40703 727 ft 11 kts 115°
2026-04-22 12:22 31.52405 74.40794 726 ft 12 kts 92°
2026-04-22 12:22 31.52346 74.40844 726 ft 12 kts 178°
2026-04-22 12:22 31.52262 74.40847 724 ft 12 kts 179°
2026-04-22 12:22 31.52177 74.40843 724 ft 12 kts 182°
2026-04-22 12:23 31.52094 74.40840 725 ft 12 kts 181°
2026-04-22 12:23 31.52045 74.40843 725 ft 3 kts 158°
2026-04-22 12:23 31.52035 74.40865 725 ft 3 kts 101°
2026-04-22 12:23 31.52038 74.40891 725 ft 3 kts 84°
2026-04-22 12:24 31.52038 74.40917 723 ft 3 kts 89°
2026-04-22 12:24 31.52039 74.40933 722 ft 0 kts 89°